Location: Gleizolles
(44.4833°N, 6.7667°E)
Time: 00:02:16
(UTC+00:00)

S-56A Canister/Altair - Pass Details

Date: 03 July 2024
Orbit: 638 x 2488 km, 38.9° (Epoch: 24 July)

Event Time Altitude Azimuth Distance (km) Brightness Sun altitude
Rises 21:21:48 0° 274° (W) 3,942 11.7 -15.9°
Reaches altitude 10° 21:24:16 10° 268° (W) 3,192 11.1 -16.1°
Maximum altitude 21:32:00 47° 198° (SSW) 2,048 9.4 -16.8°
Enters shadow 21:39:27 21° 138° (SE) 3,532 10.3 -17.5°
Drops below altitude 10° 21:43:17 10° 131° (SE) 4,601 - -17.8°
Sets 21:47:37 0° 126° (SE) 5,821 - -18.1°
